Weather Roundup
Issued by NWS Corpus Christi, TX

Current Version | Previous Version | Text Only | Print | Product List | Glossary On
Versions: 1 2 3 4 5 6 7 8 9 10 11 12 13 14 15 16 17 18 19 20 21 22 23 24 25 26 27 28 29 30 31 32 33 34 35 36 37 38 39 40 41 42 43 44 45 46 47 48 49 50
000
ASUS44 KCRP 280410
HRRCRP

SOUTH TEXAS REGIONAL WEATHER ROUNDUP
NATIONAL WEATHER SERVICE CORPUS CHRISTI TX
1100 PM CDT THU APR 27 2017


TXZ229>244-280500-
...CORPUS CHRISTI AREA OBSERVATIONS...

CITY           SKY/WX    TMP DP  RH WIND       PRES   REMARKS
CORPUS CHRISTI CLOUDY    76  71  85 SE13      29.65S
NAS CORPUS CHR CLOUDY    77  73  87 SE12      29.65F
ROCKPORT       CLOUDY    76  70  82 SE14      29.65F
KINGSVILLE NAS CLOUDY    77  73  87 E7        29.64F
ALICE          CLOUDY    75  69  81 SE10      29.63F
ORANGE GROVE   CLOUDY    75  71  87 SE14      29.64F
FALFURRIAS     MOCLDY    75  70  84 SE6       29.63F
$$

...VICTORIA AREA OBSERVATIONS...

CITY           SKY/WX    TMP DP  RH WIND       PRES   REMARKS
VICTORIA       CLOUDY    74  69  85 SE13      29.67R
BEEVILLE       CLOUDY    74  69  83 SE10G17   29.65S
PLEASANTON     HVY RAIN  71  65  82 SE8G18    29.65R
SAN ANTONIO    MOCLDY    73  63  70 SE17      29.65R
$$

...LAREDO AREA OBSERVATIONS...

CITY           SKY/WX    TMP DP  RH WIND       PRES   REMARKS
LAREDO         CLEAR     78  69  73 SE14G21   29.61R
COTULLA        CLEAR     76  66  71 SE20G31   29.60R
DEL RIO        CLOUDY    79  61  53 SE10      29.55R
MCALLEN        MOCLDY    80  71  74 SE12      29.63S
HEBBRONVILLE   CLEAR     71  67  87 SE9       29.64S
$$

...OTHER TEXAS OBSERVATIONS...

CITY           SKY/WX    TMP DP  RH WIND       PRES   REMARKS
BROWNSVILLE    CLOUDY    79  71  76 SE9       29.65S
HOUSTON        CLOUDY    70  64  81 SE12      29.68S
COL. STATION   PTCLDY    71  61  70 SE14      29.65R
AUSTIN         PTCLDY    71  64  78 S15       29.63R
WACO           PTCLDY    69  55  60 SE13      29.60F
FORT WORTH     MOCLDY    70  53  54 SE16      29.56S
WICHITA FALLS  CLEAR     62  49  62 E13       29.50R
LUBBOCK        CLOUDY    79  29  16 SW15      29.45S
EL PASO        CLOUDY    81  25  12 W25G37    29.62R
$$

...MARINE OBSERVATIONS...

STATION/POSITION TIME  SKY/WX   TEMP    WIND        PRES    VSBY  WAVE   SWELL
                                AIR SEA DIR/SP/G                  HT/PER HT/PER
                 (UTC)          (F)     (DEG/KT/KT) (MB)    (MI)  (FT/S) (FT/S)
PORT ARANSAS     0400            75 77  120/ 11/ 12 1004.4S
BUOY 90 E PORT A 0250            76 76   90/ 14/ 16 1004.7          4/ 5
BUOY 45 SE BAFFI 0250            76     120/ 12/ 12 1003.3          5/ 7   5/ 7
BUOY 200 E PT IS 0250            79 79  140/ 16/ 19 1005.1          5/ 7
BUOY 15 E GALVES 0250            74 75  130/ 16/ 17 1005.7          3/ 4   2/ 8
$$



USA.gov is the U.S. government's official web portal to all federal, state and local government web resources and services.